Weather Roundup
Issued by NWS

Home | Current Version | Previous Version | Text Only | Print | Product List | Glossary On
Versions: 1 2 3 4 5 6 7 8 9 10 11 12 13 14 15 16 17 18 19 20 21 22 23 24 25 26 27 28 29 30 31 32 33 34 35 36 37 38 39 40 41 42 43 44 45 46 47 48 49 50
000
NZUS93 KARX 190710
HRRWXR

CURRENT HOURLY OBSERVATIONS ACROSS
MUCH OF THE UPPER MISSISSIPPI VALLEY
NATIONAL WEATHER SERVICE LA CROSSE WI
100 AM CST SUN NOV 19 2017


...SOUTHEAST MINNESOTA...


CITY           SKY/WX    TMP DP  RH WIND       PRES   REMARKS
ROCHESTER      PTCLDY    20  14  77 NW13      30.00F WCI   7
ROCHESTER/MAYO FAIR      21  14  73 NW13G21   30.01F WCI   8
WINONA           N/A     23  14  68 NW10      30.03R WCI  12
AUSTIN         PTCLDY    19  12  73 NW12      30.03F WCI   7
ALBERT LEA     PTCLDY    19  10  68 NW9G16    30.06S WCI   9
DODGE CENTER   PTCLDY    19  12  73 NW13G18   30.02F WCI   7
PRESTON        CLEAR     20  13  75 NW17G24   30.01S WCI   5
OWATONNA       CLOUDY    19  12  73 W12       30.05R WCI   7
FARIBAULT      CLOUDY    19  12  73 W8        30.06R WCI   9
$$

...ELSEWHERE IN MINNESOTA...


CITY           SKY/WX    TMP DP  RH WIND       PRES   REMARKS
MINNEAPOLIS    PTCLDY    20  11  68 NW12      30.05R WCI   8
INTNL FALLS    CLOUDY    11   5  77 W7        29.93F WCI   0
DULUTH         FLURRIES  14   8  77 NW15      29.91S WCI  -1
RED WING       CLOUDY    21   9  58 NW8       30.04R WCI  12
REDWOOD FALLS  CLEAR     17   9  70 W8        30.11S WCI   7
MANKATO        CLEAR     18  11  74 NW9       30.09R WCI   7
WORTHINGTON    CLEAR     18  13  80 W9        30.12S WCI   7
FAIRMONT       CLEAR     20  13  74 NW12      30.11S WCI   8
$$

...SOUTHWEST WISCONSIN...


CITY           SKY/WX    TMP DP  RH WIND       PRES   REMARKS
LA CROSSE      CLOUDY    27  16  63 NW24      30.00R WCI  12
PRAIRIE DU CHI CLOUDY    28  18  65 W15       29.99S WCI  16
BOSCOBEL       CLOUDY    29  17  61 VRB5      29.98R WCI  24
LONE ROCK      CLOUDY    29  19  66 NW13G21   29.94R WCI  19
PLATTEVILLE    PTCLDY    27  20  76 NW15G21   29.95R WCI  15
FORT MC COY    CLOUDY    27  17  67 NW14      29.97R WCI  15
CAMP DOUGLAS   CLOUDY   N/A N/A N/A W14G22    29.94R
MAUSTON-NEW LI CLOUDY    28  18  65 NW14      29.91R WCI  17
VIROQUA        CLOUDY    26  18  73 NW16G22   29.94R WCI  13
WIS DELLS      CLOUDY    28  18  64 NW7       29.90R WCI  21
$$

...ELSEWHERE IN WISCONSIN...


CITY           SKY/WX    TMP DP  RH WIND       PRES   REMARKS
MILWAUKEE      CLOUDY    36  24  62 NW15      29.84R WCI  27
MADISON        CLOUDY    30  20  66 NW12G21   29.89R WCI  20
GREEN BAY      CLOUDY    32  25  75 NW15      29.83R WCI  22
EAU CLAIRE     MOCLDY    22  13  68 W9        29.97F WCI  12
BLACK RVR FLS  CLOUDY    26  13  58 NW10      29.97R WCI  16
MEDFORD        CLOUDY    22  13  68 NW13      29.88R WCI  10
WAUSAU         CLOUDY    24  15  68 NW13      29.86R WCI  12
WIS RAPIDS     CLOUDY    27  15  61 N13       29.90R WCI  16
MARSHFIELD     CLOUDY    24  13  62 NW21      29.89R WCI   9
RICE LAKE      CLOUDY    20  12  72 W9        29.99R WCI   9
$$

...NORTHEAST IOWA...


CITY           SKY/WX    TMP DP  RH WIND       PRES   REMARKS
WATERLOO       CLEAR     22  14  71 NW15G23   30.06R WCI   9
DUBUQUE        MOCLDY    26  18  71 NW18G25   29.96R WCI  13
DECORAH        PTCLDY    21  16  79 NW15G25   30.00R WCI   8
MASON CITY     CLEAR     20  11  68 NW15      30.09R WCI   6
CHARLES CITY   CLEAR     21  14  73 NW16G22   30.05S WCI   7
OELWEIN        CLEAR     23  18  80 NW18G26   30.04R WCI   9
$$

...ELSEWHERE IN IOWA...


CITY           SKY/WX    TMP DP  RH WIND       PRES   REMARKS
DES MOINES     CLEAR     29  19  66 NW13      30.13R WCI  19
IOWA CITY      CLEAR     28  16  60 NW14G24   30.07R WCI  17
FORT DODGE     CLEAR     23  16  74 NW8       30.13S WCI  14
MARSHALLTOWN   CLEAR     24  16  71 NW18      30.09R WCI  10
CEDAR RAPIDS   CLEAR     24  17  74 NW21      30.04R WCI   9
$$

...NORTHERN ILLINOIS...


CITY           SKY/WX    TMP DP  RH WIND       PRES   REMARKS
CHICAGO-OHARE  CLOUDY    36  25  64 NW18G24   29.85R WCI  26
CHICAGO-MIDWAY CLOUDY    38  27  64 NW14      29.86R WCI  30
MOLINE         CLEAR     29  19  66 NW20G25   30.00R WCI  16
ROCKFORD       CLOUDY    33  23  66 NW14      29.91S WCI  23
PEORIA         CLOUDY    32  24  72 NW12G23   29.99S WCI  23
$$

NOTE: "FAIR" INDICATES FEW OR NO CLOUDS BELOW 12,000 FEET WITH NO
SIGNIFICANT WEATHER AND/OR OBSTRUCTIONS TO VISIBILITY. WIND
SPEEDS ARE IN MILES-PER-HOUR.




USA.gov is the U.S. government's official web portal to all federal, state and local government web resources and services.